Flight Track Log - Related Links

Times and Time Zones

All times are in EDT time to prevent confusion due to time zone crossing. See the N551US flight status page for this flight to view local times or setup timezone preferences in your user account.

Time Position Orientation Groundspeed Altitude Reporting Facility
EDT Latitude Longitude Course Direction KTS MPH feet Rate Location/Type
Fri 04:30:03 PM 33.8661 -86.1453 201° Southwest 148 170 3,100  Level Atlanta Center
Fri 04:30:29 PM 33.8533 -86.1475 188° South 178 205 3,500 896 Climbing Atlanta Center
Fri 04:31:10 PM 33.8261 -86.1617 203° Southwest 138 159 4,100 900 Climbing Atlanta Center
Fri 04:31:29 PM 33.8156 -86.1667 201° Southwest 171 197 4,400 787 Climbing Atlanta Center
Fri 04:32:11 PM 33.7883 -86.1783 200° South 135 155 4,900 700 Climbing Atlanta Center
Fri 04:32:29 PM 33.7797 -86.1806 192° South 152 175 5,100 700 Climbing Atlanta Center
Fri 04:33:11 PM 33.7503 -86.1950 202° Southwest 143 165 5,600 600 Climbing Atlanta Center
Fri 04:33:29 PM 33.7419 -86.1972 193° South 146 168 5,700 590 Climbing Atlanta Center
Fri 04:34:12 PM 33.7125 -86.2139 205° Southwest 151 174 6,200 600 Climbing Atlanta Center
Fri 04:34:29 PM 33.7042 -86.2136 178° South 146 168 6,300 600 Climbing Atlanta Center
Fri 04:35:00 PM 33.6580 -86.2298 201° Southwest  Level Estimated
Fri 04:35:12 PM 33.6725 -86.2281 201° Southwest 152 175 6,800  Level Atlanta Center
Fri 04:35:29 PM 33.6619 -86.2325 199° South 153 176 6,900 537 Climbing Atlanta Center
Fri 04:36:19 PM 33.6283 -86.2492 202° Southwest 154 177 7,400 571 Climbing Atlanta Center
Fri 04:37:14 PM 33.5925 -86.2658 201° Southwest 151 174 7,900 331 Climbing Atlanta Center
Fri 04:38:26 PM 33.5419 -86.2894 201° Southwest 167 192 8,100 94 Climbing Atlanta Center
Fri 04:39:21 PM 33.4978 -86.3081 199° South 180 207 8,100  Level Atlanta Center
Fri 04:40:28 PM 33.4453 -86.3292 199° South 182 209 8,100  Level Atlanta Center
Fri 04:41:04 PM 33.4158 -86.3408 198° South 182 209 8,100  Level Atlanta Center
Fri 04:42:23 PM 33.3528 -86.3714 202° Southwest 182 209 8,100  Level Atlanta Center
Fri 04:43:11 PM 33.3147 -86.3878 200° South 181 208 8,100 -4 Level Atlanta Center
Fri 04:45:00 PM 33.2316 -86.4191 198° South  Level FlightAware Approximate
Fri 04:52:00 PM 32.9126 -86.5456 200° South  Level FlightAware Approximate
Fri 04:53:00 PM 32.8676 -86.5652 200° South  Level FlightAware Approximate
Fri 04:54:00 PM 32.8226 -86.5849 200° South  Level FlightAware Approximate
Fri 04:55:00 PM 32.7776 -86.6045 200° South  Level FlightAware Approximate
Fri 04:56:00 PM 32.7325 -86.6242 200° South  Level FlightAware Approximate
Fri 04:57:00 PM 32.6875 -86.6438 200° South  Level FlightAware Approximate
Fri 04:58:00 PM 32.6425 -86.6633 200° South  Level FlightAware Approximate
Fri 04:59:00 PM 32.5974 -86.6829 200° South  Level FlightAware Approximate
Fri 05:00:00 PM 32.5524 -86.7024 200° South  Level FlightAware Approximate
Fri 05:01:00 PM 32.5074 -86.7220 200° South  Level FlightAware Approximate
Fri 05:02:00 PM 32.4623 -86.7415 200° South  Level FlightAware Approximate
Fri 05:03:00 PM 32.4173 -86.7610 200° South  Level FlightAware Approximate
Fri 05:04:00 PM 32.3722 -86.7804 200° South  Level FlightAware Approximate
Fri 05:05:00 PM 32.3271 -86.7999 200° South  Level FlightAware Approximate
Fri 05:06:00 PM 32.2821 -86.8193 200° South  Level FlightAware Approximate
Fri 05:07:00 PM 32.2370 -86.8387 200° South  Level FlightAware Approximate
Fri 05:07:17 PM 32.2217 -86.8597 200° South 173 199 8,000  Level Atlanta Center
Fri 05:08:00 PM 32.1920 -86.8581 200° South  Level FlightAware Approximate
Fri 05:08:17 PM 32.1753 -86.8803 201° Southwest 173 199 8,000  Level Atlanta Center
Fri 05:09:00 PM 32.1469 -86.8775 200° South  Level FlightAware Approximate
Fri 05:09:17 PM 32.1331 -86.8986 200° South 190 219 8,000  Level Atlanta Center
Fri 05:10:00 PM 32.1018 -86.8968 200° South  Level FlightAware Approximate
Fri 05:10:17 PM 32.0889 -86.9169 199° South 184 212 8,000  Level Atlanta Center
Fri 05:11:00 PM 32.0568 -86.9162 200° South  Level FlightAware Approximate
Fri 05:11:17 PM 32.0425 -86.9375 201° Southwest 184 212 8,000  Level Atlanta Center
Fri 05:12:17 PM 32.0003 -86.9581 202° Southwest 179 206 8,000  Level Atlanta Center
Fri 05:13:17 PM 31.9539 -86.9736 196° South 174 200 8,000  Level Atlanta Center
Fri 05:14:17 PM 31.9075 -86.9942 201° Southwest 174 200 8,000  Level Atlanta Center
Fri 05:16:35 PM 31.7981 -87.0431 201° Southwest 174 200 8,000  Level Jacksonville Center
Fri 05:17:35 PM 31.7533 -87.0631 201° Southwest 174 200 8,000  Level Jacksonville Center
Fri 05:18:35 PM 31.7047 -87.0828 199° South 174 200 8,000  Level Jacksonville Center
Fri 05:19:35 PM 31.6664 -87.1103 211° Southwest 169 194 8,000  Level Jacksonville Center
Fri 05:20:35 PM 31.6256 -87.1403 212° Southwest 175 201 8,000  Level Jacksonville Center
Fri 05:21:35 PM 31.5853 -87.1650 208° Southwest 175 201 8,000  Level Jacksonville Center
Fri 05:22:35 PM 31.5467 -87.1903 209° Southwest 175 201 8,000  Level Jacksonville Center
Fri 05:23:35 PM 31.5061 -87.2175 210° Southwest 175 201 8,000  Level Jacksonville Center
Fri 05:24:35 PM 31.4614 -87.2447 207° Southwest 175 201 8,000  Level Jacksonville Center
Fri 05:25:35 PM 31.4186 -87.2742 210° Southwest 175 201 8,000  Level Jacksonville Center
Fri 05:26:35 PM 31.3758 -87.3039 211° Southwest 180 207 8,000  Level Jacksonville Center
Fri 05:27:35 PM 31.3331 -87.3336 211° Southwest 186 214 8,000  Level Jacksonville Center
Fri 05:28:35 PM 31.3003 -87.3758 228° Southwest 186 214 8,000  Level Jacksonville Center
Fri 05:29:35 PM 31.2858 -87.4308 253° West 186 214 8,000  Level Jacksonville Center
Fri 05:30:08 PM 31.2697 -87.4714 245° Southwest 180 207 8,000  Level Jacksonville Center
Fri 05:30:35 PM 31.2631 -87.4833 237° Southwest 186 214 8,000  Level Jacksonville Center
Fri 05:31:20 PM 31.2269 -87.5008 203° Southwest 163 188 8,000  Level Jacksonville Center
Fri 05:31:35 PM 31.2228 -87.5008 180° South 156 180 8,000  Level Jacksonville Center
Fri 05:32:27 PM 31.1786 -87.5106 191° South 161 185 8,000  Level Jacksonville Center
Fri 05:32:35 PM 31.1806 -87.5083 44° Northeast 156 180 8,000  Level Jacksonville Center
Fri 05:33:28 PM 31.1322 -87.5181 190° South 172 198 8,000  Level Jacksonville Center
Fri 05:33:35 PM 31.1322 -87.5181 190° South 161 185 8,000  Level Jacksonville Center
Fri 05:34:22 PM 31.0839 -87.5278 190° South 176 203 8,000  Level Jacksonville Center
Fri 05:34:35 PM 31.0819 -87.5253 132° Southeast 174 200 8,000  Level Jacksonville Center
Fri 05:35:35 PM 31.0336 -87.5350 190° South 179 206 8,000  Level Jacksonville Center
Fri 05:36:29 PM 30.9831 -87.5472 192° South 175 201 8,000  Level Jacksonville Center
Fri 05:36:35 PM 30.9853 -87.5447 44° Northeast 179 206 8,000 -393 Level Jacksonville Center
Fri 05:37:30 PM 30.9325 -87.5567 191° South 184 212 7,600 -400 Descending Jacksonville Center
Fri 05:37:35 PM 30.9369 -87.5544 23° Northeast 179 206 7,600 -393 Level Jacksonville Center
Fri 05:38:31 PM 30.8800 -87.5664 190° South 192 221 7,200 -400 Descending Jacksonville Center
Fri 05:38:35 PM 30.8844 -87.5617 42° Northeast 179 206 7,200 -375 Level Jacksonville Center
Fri 05:39:35 PM 30.8319 -87.5711 189° South 184 212 6,800 -484 Descending Jacksonville Center
Fri 05:39:37 PM 30.8211 -87.5778 208° Southwest 188 216 6,700 -400 Descending Jacksonville Center
Fri 05:40:50 PM 30.7603 -87.5869 187° South 181 208 6,300 -375 Descending Jacksonville Center
Fri 05:41:45 PM 30.7142 -87.5967 190° South 183 211 5,900 -385 Descending Jacksonville Center
Fri 05:42:39 PM 30.6697 -87.6067 191° South 183 211 5,600 -417 Descending Jacksonville Center
Fri 05:43:40 PM 30.6194 -87.6139 187° South 186 214 5,100 -550 Descending Jacksonville Center
Fri 05:44:28 PM 30.5794 -87.6239 192° South 188 216 4,600 -550 Descending Jacksonville Center
Fri 05:45:29 PM 30.5353 -87.6314 188° South 152 175 4,100 -694 Descending Jacksonville Center
Fri 05:46:29 PM 30.4872 -87.6361 185° South 171 197 3,200 -893 Descending Jacksonville Center
Fri 05:47:30 PM 30.4492 -87.6464 193° South 128 147 2,300 -738 Descending Jacksonville Center
Fri 05:48:31 PM 30.4156 -87.6519 188° South 121 139 1,700 -590 Descending Jacksonville Center

Login

Don't have an account? Register now (free) for customized features, flight alerts, and more!